Location: Ayer Observatory
(42.2600°N, 71.0700°W)
Time: 11:24:30
(UTC-04:00)

FO-29 - Pass Details

Date: 01 September 2019
Orbit: 801 x 1321 km, 98.6° (Epoch: 22 October)

Event Time Altitude Azimuth Distance (km) Brightness Sun altitude
Exits shadow 03:36:08 65° 295° (WNW) 880 9.1 -26.0°
Drops below altitude 10° 03:40:51 10° 342° (NNW) 2,402 11.8 -25.4°
Sets 03:43:14 0° 345° (NNW) 3,363 12.6 -25.0°
